User: anonymous   Login
Location: Unspecified
(0.0000°N, 0.0000°E)
Time: 17:19:10
(UTC+00:00)
Language:

RISAT 1 - Orbit

View from above orbital plane
View from above orbital plane
View from above satellite
View from above satellite

Ground track
Ground track

The orbit data is extracted from the following two-line orbital elements,

1 38248U 12017A   17055.22750206  .00000832  00000-0  56674-4 0  9993
2 38248  97.5747  64.3389 0005910  70.3014 350.6485 15.08949812266203
Epoch (UTC): 24 February 2017 05:27:36
Eccentricity: 0.0005910
inclination: 97.5747°
perigee height: 535 km
apogee height: 543 km
right ascension of ascending node: 64.3389°
argument of perigee: 70.3014°
revolutions per day: 15.08949812
mean anomaly at epoch: 350.6485°
orbit number at epoch: 26620

The dashed part of the orbit path shows where the satellite is in the earth's shadow,  

DLR